GALAXY 3C (G-3C)

Last updated on Wed Sep 17 2025 00:02:46 GMT+0000 (Coordinated Universal Time)

1 27445U 02030A 25258.85125050 -.00000170 00000+0 00000+0 0 9992 2 27445 3.0319 81.4282 0002153 61.2268 64.0057 1.00271528 43747
UTC large
Height (km)
Speed (km/s)
/
Latitude / Longitude
Inclination (degrees)
Orbital Period (minutes)
Azimuth
Elevation
Range (km)
Doppler Factor

Next 0 passes for location: London (51.5072 / 0.1276)

Sorry there are no passes over London.